Regional Weather Roundup
Issued by NWS Lake Charles, LA

Home | Current Version | Previous Version | Text Only | Print | Product List | Glossary On
Versions: 1 2 3 4 5 6 7 8 9 10 11 12 13 14 15 16 17 18 19 20 21 22 23 24 25 26 27 28
000
ASUS44 KLCH 230810
RWRLCH
REGIONAL WEATHER ROUNDUP
NATIONAL WEATHER SERVICE LAKE CHARLES LA
300 AM CDT FRI JUN 23 2017

Note: "fair" indicates few or no clouds below 12,000 feet with no
significant weather and/or obstructions to visibility.


ACROSS SOUTHEAST TEXAS

CITY           SKY/WX    TMP DP  RH WIND       PRES   REMARKS
BEAUMONT       CLOUDY    80  77  90 S10       29.78S
BEAUMONT CITY  CLOUDY   N/A N/A N/A MISG      29.79S
ORANGE         CLOUDY    81  78  91 S9        29.81S
JASPER           N/A     80  78  95 S7        29.80S
$$

ACROSS CENTRAL LOUISIANA

CITY           SKY/WX    TMP DP  RH WIND       PRES   REMARKS
LEESVILLE      LGT RAIN  78  76  96 S9        29.78F
FULLERTON      LGT RAIN  78  77  96 VRB3      29.77S
ALEXANDRIA INT NOT AVBL
ESLER FIELD    NOT AVBL
DERIDDER       CLOUDY   N/A N/A N/A S7        29.81S
OAKDALE        CLOUDY    80  76  89 S7        29.81R
OPELOUSAS      CLOUDY    79  76  89 S12       29.82S
$$

ACROSS SOUTHWEST AND SOUTH CENTRAL LOUISIANA

CITY           SKY/WX    TMP DP  RH WIND       PRES   REMARKS
SULPHUR        CLOUDY    82  79  91 S12       29.81S
LAKE CHARLES   CLOUDY    82  81  96 S9        29.80S
CHENNAULT INT  CLOUDY    80  78  92 S12       29.81R
CAMERON PHI    NOT AVBL
DEQUINCY       CLOUDY    79  76  91 S10       29.80S
JENNINGS       CLOUDY   N/A N/A N/A S8        29.81S
LAFAYETTE      CLOUDY    82  78  88 S13       29.83S
NEW IBERIA     NOT AVBL
ABBEVILLE      CLOUDY    81  81 100 S13G22    29.83S
PATTERSON      CLOUDY    80  77  90 S12       29.85S
SALT POINT       N/A     82  78  88 VRB7      29.83S
$$

SELECTED SITES ACROSS THE REGION

CITY           SKY/WX    TMP DP  RH WIND       PRES   REMARKS
HOUSTON BUSH   MOCLDY    81  77  88 S6        29.77R
HOUSTON HOBBY  MOCLDY    81  77  88 S8        29.76R
GALVESTON      MOCLDY    82  79  90 S16       29.78S
COLLEGE STAT   MOCLDY    78  77  96 S9        29.74S
CONROE         CLOUDY    79  76  90 S6        29.77R
HUNTSVILLE     CLOUDY    80  75  84 S8        29.76R
LUFKIN         LGT RAIN  78  76  93 S7        29.75S
SHREVEPORT     CLOUDY    77  77 100 S8        29.72S
MONROE         RAIN      77  72  84 S16G25    29.75S
NATCHEZ MS     CLOUDY    78  75  90 S12       29.83S
BATON ROUGE    CLOUDY    79  77  94 S9        29.83F
N.O. INTL ARPT MOCLDY    80  77  90 S16       29.87S
SLIDELL        CLOUDY    82  77  84 S18       29.87F
$$

MARINE REPORTS

STATION/POSITION TIME  SKY/WX   TEMP    WIND        PRES    VSBY
                                AIR SEA DIR/SP/G
                 (UTC)          (F)     (DEG/KT/KT) (MB)    (MI)
BUOY 30 S HIGH I 0650            82 82  190/ 16/ 19 1007.8
WVE H/P(F/S)=  5/ 6

SEA RIM ST PARK  0700            81     190/ 14/ 17 1009.3R
PORT ARTHUR      0748            81 82  190/  8/ 13 1008.9S
SABINE PASS N    0748            81 83  180/ 10/ 15 1010.2F
TEXAS POINT      NOT AVBL
CALCASIEU PASS   0748            81 81  210/ 18/ 20   N/A
LK CHARLES BEACH 0748            81 82              1009.5S
MARSH ISLAND     0700            82                   N/A
FRESH WATER LOCK 0748            81 81  160/ 16/ 21 1009.8F
AMERADA PASS     0748            81 81  150/  6/ 13 1010.5F
$$




USA.gov is the U.S. government's official web portal to all federal, state and local government web resources and services.